COSMOS 2251 DEB, 34760

Orbit data source: Space-Track

COSMOS 2251 DEB, 34760 is space debris in LEO originally from a launch on Wed, 16 Jun 1993 UTC launched from the Plesetsk Missile And Space Complex (PKMTR). The debris from Iridium 33, an American commercial communications satellite, has been tracked extensively since its accidental collision with the defunct Russian satellite Cosmos 2251 in 2009. This event, occurring at high speed in low Earth orbit (LEO), generated thousands of pieces of space debris, significantly increasing the risk of further collisions. The Iridium 33 debris cloud has impacted space traffic management and orbital debris mitigation strategies, making it a subject of ongoing study in space situational awareness.

Loading next visibility...
Identifier
34760, 1993-036AAE
Orbit
LEO
Country
Flag of CISCIS
Related business
Manufacturer
Unknown
Mission
Spacecraft
Bus & Motor
Unknown
Mass
Unknown
Launch date (UTC)
1993-06-16 (32 years ago)
Launch vehicle
Unknown
Launch site
Plesetsk Missile And Space Complex (PKMTR)
Object type
Payload
Rocket body
Debris
Shape & HBR
Unknown shape, 0.1 m
Radar Cross Section
Small (<0.1 m²)

Expand to show TLE details & history
Last TLE update: 1 day ago

TLE from 1 day ago
0 COSMOS 2251 DEB
1 34760U 93036AAE 25347.84565045  .00002224  00000-0  10170-2 0  9990
2 34760  74.0637 300.3859 0096820 352.2673  34.8825 14.19574474867041
Epoch: 2025-12-13T20:17Z
TLE epoch observation values (Epoch: 2025-12-13T20:17:44.198Z)
Latitude
26.67992°
Longitude
-78.60997°
Altitude
772.708 km
Speed
7.5 km/s
True Right ascension
20h 34m 21s
True Declination
26° 32' 33"
Sunlit
Object was in daylight at epoch
Visualization orbit readout
Latitude
Unknown
Longitude
Unknown
Altitude
Unknown
Speed
Unknown
Apparent Right ascension
Unknown
Apparent Declination
Unknown
Sunlit
N/A
Visualization observer readout
Local Sidereal Time
20:24:52
Azimuth
Unknown
Elevation
Unknown
Doppler factor
Unknown
Orbital elements
Apogee altitude
894.167 km
Perigee altitude
754.697 km
Semi-major axis
7,202.569 km
Eccentricity
0.00968
Inclination
74.0637°
RAAN
300.3859°
Arg. of periapsis
352.2673°
True anomaly
35.52335°
Mean anomaly
34.8825°
Eccentric anomaly
35.20229°
Mean motion
3.55068 °/min
Orbital period
101.39 mins
BSTAR
0.001017

Documentation

Showing up to 5 results
|